GFSNIL_con_sbcape_000.txt.gz
CAPE
225 4 16 22 81 3 3 6 33 25 73 165 228 316 467 573 624 840 1098 981 1379 1761
357 302 104 180 246 20 112 1 3 52 127 196 279 462 568 494 540 571 915 979 1171 1398
78 159 126 125 172 197 231 211 225 211 216 258 330 330 456 584 522 733 757 716 886 1012
83 54 11 24 158 251 274 358 354 476 519 513 533 514 524 490 277 391 476 488 678 804
63 103 45 52 125 190 224 369 431 525 784 728 695 699 741 628 537 508 408 421 608 756
95 80 87 101 62 129 288 409 541 726 716 632 731 701 682 729 492 371 282 200 232 59
235 169 99 103 206 257 466 621 788 797 819 864 857 793 784 654 475 289 136 52 34 12
263 360 169 415 552 566 516 481 669 663 756 744 721 690 732 400 432 263 148 61 5 6
449 646 773 565 624 599 475 430 576 641 636 804 786 0 0 50 339 165 191 145 7 6
736 777 775 361 535 578 632 669 567 584 652 826 873 72 0 4 275 203 127 170 175 9
728 808 772 490 414 553 705 635 577 604 730 765 707 81 1 0 341 431 241 181 201 92
718 795 837 729 679 735 671 427 402 582 784 807 820 85 6 0 442 697 381 334 262 169
622 887 801 769 716 670 635 476 504 564 759 811 720 384 201 0 827 767 999 358 535 111
918 1295 1237 828 786 723 866 799 805 930 924 768 338 703 208 0 423 1090 732 690 223 376

GFSNIL_con_sbcape_003.txt.gz
CAPE
407 47 45 68 199 35 6 6 93 140 113 164 184 262 661 459 421 874 760 738 1188 1206
510 409 332 338 355 86 200 73 42 102 196 265 249 228 512 296 501 562 951 706 1068 898
30 187 320 296 324 335 340 328 275 202 210 280 367 776 653 689 681 808 406 397 598 905
87 97 179 149 125 274 384 427 433 306 315 467 529 637 772 760 719 523 844 832 691 810
208 233 136 157 136 187 214 334 375 389 640 520 533 967 665 701 658 737 618 434 364 176
300 334 385 384 213 159 136 311 393 632 648 602 645 635 774 785 710 796 564 393 323 125
301 569 546 516 350 447 516 568 650 724 729 574 642 774 860 830 835 701 595 486 303 127
411 637 764 679 617 552 533 479 591 897 750 425 621 400 874 930 722 744 681 516 450 152
435 606 787 800 701 666 618 737 903 555 787 937 453 109 73 193 564 778 685 533 386 423
688 901 945 659 573 581 830 1328 1201 667 647 946 1276 141 191 241 400 702 840 763 603 305
842 914 942 880 862 1101 1023 1367 1222 949 1031 1072 873 113 130 164 435 720 1006 1104 1024 780
897 1010 1083 1097 1251 1320 1276 875 931 1154 1166 1405 1573 200 127 123 532 974 1057 1066 1094 783
905 998 1066 1333 1206 1216 1490 744 574 574 841 784 1499 870 42 44 400 1221 831 947 921 252
1162 1714 1409 1438 905 1315 1182 1236 1081 643 1228 1121 889 335 1 0 405 431 535 571 529 191

GFSNIL_con_sbcape_006.txt.gz
CAPE
818 1053 1165 1737 1103 696 720 844 892 701 919 1047 1083 1050 971 749 729 756 633 561 625 762
1784 1314 1065 845 935 816 1308 545 801 788 945 1171 1175 945 1135 757 688 782 646 588 561 352
1716 1566 1456 1146 980 1081 1336 1221 1164 1030 1040 1081 1200 1194 940 729 576 534 553 533 642 681
702 824 1345 1072 1030 1119 1512 1471 1396 1297 1168 1087 986 1161 900 972 746 481 674 651 532 599
1251 953 919 1066 951 1106 1289 1463 1418 1413 1248 941 972 974 693 760 765 738 673 755 677 581
1363 1294 1393 1317 1295 1259 1282 1318 1436 1342 1181 989 1053 1134 969 944 769 913 936 869 674 560
1510 1500 1346 1651 1776 1444 1607 1595 1491 1482 1436 1201 1189 1153 967 853 797 686 878 925 707 668
1799 1671 1756 1846 1649 1611 1735 1549 1758 1604 1483 1438 1205 602 996 784 904 1008 962 1039 783 652
1711 1654 1613 1927 2117 1964 2031 1852 1804 1482 1463 1451 940 45 180 499 1064 1031 980 913 833 681
1661 1685 1908 1887 1945 2056 1813 1955 1917 1682 1485 1499 1310 603 172 385 680 861 824 952 930 547
1789 1809 2048 2032 2027 2206 2193 2194 1828 1576 1642 1485 1127 398 42 112 650 848 893 969 819 507
1795 1919 2008 2139 1962 2180 1943 1948 1746 1675 1535 1237 1346 383 1 0 643 753 742 1054 759 628
1986 2148 2129 2043 2018 1773 2105 1476 994 1015 1291 1264 1339 26 43 32 12 99 426 772 755 436
2249 2551 2549 2614 2312 1917 1145 845 1418 1416 1341 1289 1014 339 74 12 54 154 436 140 208 478

GFSNIL_con_sbcape_009.txt.gz
CAPE
0 0 6 318 60 0 0 1 60 2 106 93 146 178 125 28 7 24 12 10 29 19
28 18 133 28 0 0 141 0 26 27 44 136 243 273 71 43 66 6 0 0 28 0
326 186 92 46 0 13 0 79 51 136 155 155 76 143 209 11 0 0 0 24 23 35
605 322 177 89 5 23 97 303 256 229 154 108 160 212 232 80 85 64 46 76 68 52
0 6 133 46 17 11 51 105 161 130 193 175 105 115 109 6 81 91 70 99 89 139
54 21 30 68 29 33 45 38 3 106 105 88 102 104 128 169 126 112 81 154 161 130
165 98 139 167 179 180 166 125 248 340 225 169 251 252 343 306 112 117 103 221 276 132
172 193 278 299 409 346 182 335 268 322 316 261 453 508 66 139 271 271 193 305 220 237
356 323 357 313 393 289 224 334 511 267 193 286 414 260 14 23 48 166 181 172 160 189
262 272 336 412 575 763 654 531 179 403 423 256 400 625 284 142 32 51 113 183 144 114
380 467 505 586 627 651 529 304 414 511 299 465 457 366 139 13 12 59 160 204 197 218
523 505 645 863 849 710 713 563 642 579 346 406 201 6 3 0 0 4 2 11 59 114
745 783 914 978 1056 850 653 513 425 21 350 204 0 0 0 0 0 0 0 42 24 2
1098 1115 1090 1096 955 798 752 30 12 167 368 257 150 0 0 0 0 2 2 0 0 0

GFSNIL_con_sbcape_012.txt.gz
CAPE
0 0 0 0 0 0 0 0 0 0 0 0 0 0 0 0 0 0 0 0 0 0
0 0 0 0 0 0 0 0 0 0 0 0 0 0 0 0 0 0 0 0 0 0
0 0 0 0 0 0 0 0 0 0 0 0 0 0 0 0 0 0 0 0 0 0
0 0 0 0 0 0 0 0 9 0 0 0 0 0 0 0 0 0 0 0 0 0
71 63 10 8 0 0 0 5 4 0 0 0 0 0 0 0 0 0 0 13 4 6
24 0 8 15 3 0 0 0 0 0 0 0 0 0 0 0 3 2 17 30 12 9
0 0 0 19 6 0 0 0 0 0 0 0 0 0 12 25 51 42 49 29 26 31
11 0 0 4 2 0 0 0 0 0 0 0 0 38 98 25 29 67 61 31 41 38
21 30 7 37 40 49 67 21 9 50 67 3 16 134 94 0 0 9 15 31 26 19
80 88 72 99 56 131 82 37 53 108 31 75 38 59 146 2 0 0 0 0 0 0
237 169 138 139 155 197 251 276 216 75 82 104 54 154 175 20 0 0 0 2 8 2
251 198 140 169 217 285 309 224 125 68 97 22 95 47 1 0 0 0 0 0 0 0
212 215 189 283 397 426 384 361 96 7 3 38 1 2 0 0 0 0 0 0 0 0
323 238 344 483 560 572 234 0 0 0 0 1 5 0 0 0 0 0 0 0 0 0

GFSNIL_con_sbcape_015.txt.gz
CAPE
0 0 0 0 0 0 0 0 0 0 0 0 0 0 0 0 0 0 0 0 0 0
0 0 0 0 0 0 0 0 0 0 0 0 0 0 0 0 0 0 0 0 0 0
0 0 0 0 0 0 0 0 0 0 0 0 0 0 0 0 0 0 0 0 0 0
0 0 0 0 0 0 0 0 0 0 0 0 0 0 0 0 0 0 0 0 0 0
0 0 0 0 0 0 0 0 0 0 0 0 0 0 0 0 0 0 0 0 0 0
0 0 0 0 0 0 0 0 0 0 0 0 0 0 0 0 0 0 0 0 0 0
0 0 4 0 0 0 0 0 0 0 0 0 0 0 0 0 0 0 0 0 0 0
0 1 3 37 0 0 0 0 12 0 0 0 0 0 0 0 0 0 0 0 10 2
0 0 0 0 0 0 0 0 0 0 0 0 0 0 5 3 0 0 0 0 0 0
67 80 12 0 0 0 0 1 32 5 7 14 0 0 0 1 0 0 0 0 0 0
3 34 47 25 10 31 9 30 52 21 20 4 0 0 10 26 5 0 0 0 0 0
102 2 39 31 52 54 110 122 110 34 13 7 0 0 3 0 0 0 0 0 0 0
18 35 45 58 89 89 128 123 36 13 4 6 7 28 5 0 0 0 0 0 0 0
2 10 13 21 54 87 123 49 0 10 0 1 0 0 3 0 0 0 0 0 0 0